User: anonymous   Login
Location: Aalen
(48.8330°N, 10.1000°E)
Time: 13:36:24
(UTC+02:00)
Language:

METEOR M2 - Orbit

View from above orbital plane
View from above orbital plane
View from above satellite
View from above satellite

Ground track
Ground track

The orbit data is extracted from the following two-line orbital elements,

1 40069U 14037A   23092.21259188  .00000112  00000-0  71054-4 0  9991
2 40069  98.4262 101.7086 0005258 191.5009 168.6059 14.20761338452865
Epoch (UTC): 02 April 2023 05:06:07
Eccentricity: 0.0005258
inclination: 98.4262°
perigee height: 819 km
apogee height: 826 km
right ascension of ascending node: 101.7086°
argument of perigee: 191.5009°
revolutions per day: 14.20761338
mean anomaly at epoch: 168.6059°
orbit number at epoch: 45286

The dashed part of the orbit path shows where the satellite is in the earth's shadow,  

DLR